TimeCDT,TemperatureF,Dew PointF,Humidity,Sea Level PressureIn,VisibilityMPH,Wind Direction,Wind SpeedMPH,Gust SpeedMPH,PrecipitationIn,Events,Conditions,WindDirDegrees,DateUTC
12:15 AM,78.8,68.0,69,29.96,10.0,WSW,9.2,16.1,N/A,,Clear,240,2013-06-13 05:15:00
12:35 AM,78.8,68.0,69,29.96,10.0,WSW,6.9,-,N/A,,Clear,250,2013-06-13 05:35:00
12:55 AM,78.8,68.0,69,29.95,10.0,WSW,10.4,16.1,N/A,,Clear,250,2013-06-13 05:55:00
1:15 AM,77.0,68.0,74,29.96,10.0,West,9.2,-,N/A,,Clear,260,2013-06-13 06:15:00
1:35 AM,77.0,68.0,74,29.96,10.0,West,9.2,-,N/A,,Clear,270,2013-06-13 06:35:00
1:55 AM,77.0,68.0,74,29.97,10.0,West,9.2,-,N/A,,Clear,260,2013-06-13 06:55:00
2:15 AM,77.0,68.0,74,29.96,10.0,West,8.1,-,N/A,,Clear,260,2013-06-13 07:15:00
2:35 AM,77.0,68.0,74,29.97,10.0,WSW,8.1,-,N/A,,Clear,250,2013-06-13 07:35:00
2:55 AM,77.0,68.0,74,29.96,10.0,West,6.9,-,N/A,,Clear,270,2013-06-13 07:55:00
3:15 AM,77.0,68.0,74,29.97,10.0,WSW,6.9,-,N/A,,Clear,250,2013-06-13 08:15:00
3:35 AM,77.0,68.0,74,29.96,10.0,West,8.1,-,N/A,,Clear,260,2013-06-13 08:35:00
3:55 AM,75.2,68.0,78,29.96,10.0,West,5.8,-,N/A,,Clear,270,2013-06-13 08:55:00
4:15 AM,75.2,68.0,78,29.96,10.0,West,6.9,-,N/A,,Clear,270,2013-06-13 09:15:00
4:35 AM,75.2,68.0,78,29.97,10.0,West,8.1,-,N/A,,Clear,260,2013-06-13 09:35:00
4:55 AM,75.2,68.0,78,29.98,10.0,WNW,6.9,-,N/A,,Partly Cloudy,290,2013-06-13 09:55:00
5:15 AM,75.2,68.0,78,29.98,10.0,West,6.9,-,N/A,,Mostly Cloudy,270,2013-06-13 10:15:00
5:35 AM,75.2,68.0,78,29.99,10.0,West,5.8,-,N/A,,Overcast,280,2013-06-13 10:35:00
5:55 AM,75.2,68.0,78,30.00,10.0,WNW,8.1,-,N/A,,Overcast,300,2013-06-13 10:55:00
6:15 AM,75.2,68.0,78,30.00,10.0,WNW,5.8,-,N/A,,Overcast,300,2013-06-13 11:15:00
6:35 AM,75.2,68.0,78,30.01,9.0,WNW,4.6,-,N/A,,Overcast,300,2013-06-13 11:35:00
6:45 AM,75.2,69.8,83,30.01,9.0,WNW,6.9,-,N/A,,Overcast,300,2013-06-13 11:45:00
7:45 AM,75.2,69.8,83,30.03,10.0,NW,6.9,-,N/A,,Overcast,310,2013-06-13 12:45:00
8:45 AM,77.0,62.6,61,30.04,10.0,NNW,10.4,-,N/A,,Mostly Cloudy,340,2013-06-13 13:45:00
9:45 AM,77.0,62.6,61,30.05,10.0,NW,8.1,-,N/A,,Mostly Cloudy,310,2013-06-13 14:45:00
10:45 AM,78.8,59.0,51,30.05,10.0,NW,9.2,-,N/A,,Mostly Cloudy,320,2013-06-13 15:45:00
11:50 AM,82.4,59.0,45,30.06,10.0,NW,11.5,-,N/A,,Partly Cloudy,310,2013-06-13 16:50:00
12:45 PM,84.2,59.0,42,30.05,10.0,WNW,8.1,-,N/A,,Scattered Clouds,290,2013-06-13 17:45:00
1:50 PM,84.2,59.0,42,30.04,10.0,NNW,9.2,-,N/A,,Scattered Clouds,330,2013-06-13 18:50:00
2:45 PM,86.0,59.0,40,30.03,10.0,NNW,9.2,-,N/A,,Partly Cloudy,330,2013-06-13 19:45:00
3:45 PM,87.8,60.8,40,30.01,10.0,North,8.1,-,N/A,,Partly Cloudy,360,2013-06-13 20:45:00
4:45 PM,86.0,60.8,43,30.01,10.0,North,6.9,-,N/A,,Clear,10,2013-06-13 21:45:00
5:50 PM,86.0,64.4,48,30.00,10.0,NNW,10.4,-,N/A,,Clear,340,2013-06-13 22:50:00
6:45 PM,84.2,64.4,51,30.00,10.0,North,8.1,-,N/A,,Clear,10,2013-06-13 23:45:00
7:45 PM,80.6,64.4,58,30.01,10.0,NNE,6.9,-,N/A,,Clear,20,2013-06-14 00:45:00
8:45 PM,77.0,64.4,65,30.02,10.0,NNE,3.5,-,N/A,,Scattered Clouds,20,2013-06-14 01:45:00
9:15 PM,77.0,64.4,65,30.02,10.0,NE,6.9,-,N/A,,Clear,50,2013-06-14 02:15:00
9:35 PM,75.2,64.4,69,30.02,10.0,ENE,5.8,-,N/A,,Clear,60,2013-06-14 02:35:00
9:55 PM,75.2,64.4,69,30.03,10.0,ENE,6.9,-,N/A,,Clear,60,2013-06-14 02:55:00
10:15 PM,75.2,64.4,69,30.03,10.0,East,6.9,-,N/A,,Clear,80,2013-06-14 03:15:00
10:35 PM,73.4,64.4,73,30.02,10.0,ENE,4.6,-,N/A,,Clear,70,2013-06-14 03:35:00
10:55 PM,73.4,64.4,73,30.03,10.0,East,5.8,-,N/A,,Clear,80,2013-06-14 03:55:00
11:15 PM,73.4,64.4,73,30.02,10.0,East,5.8,-,N/A,,Clear,100,2013-06-14 04:15:00
11:35 PM,73.4,64.4,73,30.03,10.0,East,6.9,-,N/A,,Clear,100,2013-06-14 04:35:00
11:55 PM,71.6,64.4,78,30.02,10.0,SE,6.9,-,N/A,,Clear,130,2013-06-14 04:55:00